Regional Weather Roundup
Issued by NWS

Home | Current Version | Previous Version | Graphics & Text | Print | Product List | Glossary On
Versions: 1 2 3 4 5 6 7 8 9 10 11 12 13 14 15 16 17 18 19 20 21 22 23 24 25 26 27 28 29 30 31 32 33 34 35 36 37 38 39 40 41 42 43 44 45 46 47 48 49 50
000
ASUS43 KTOP 290459
RWRKS

WEATHER ROUNDUP FOR KANSAS
NATIONAL WEATHER SERVICE GOODLAND KS
1200 AM CDT WED JUL 29 2015

NOTE:  "FAIR" INDICATES FEW OR NO CLOUDS BELOW 12,000 FEET WITH NO
SIGNIFICANT WEATHER AND/OR OBSTRUCTIONS TO VISIBILITY.

KSZ001>006-013>018-027>032-041>047-290600-
NORTHWEST KANSAS

CITY           SKY/WX    TMP DP  RH WIND       PRES   REMARKS
GOODLAND       MOCLDY    61  51  70 N5        30.17S
HAYS           MOCLDY    73  55  53 N8        30.06R
HILL CITY      CLEAR     63  59  87 N7        30.09R
RUSSELL        MOCLDY    75  59  57 NE13      30.03R
$$

KSZ061>065-074>080-084>089-290600-
SOUTHWEST KANSAS

CITY           SKY/WX    TMP DP  RH WIND       PRES   REMARKS
DODGE CITY     MOCLDY    73  59  61 NE13      30.06R
ELKHART          N/A     74  58  57 NE3         N/A
GARDEN CITY    CLOUDY    71  58  63 NE10      30.09R
GREAT BEND     PTCLDY    77  61  57 NE12G18   30.03R
LIBERAL        CLOUDY    77  61  57 N10       30.08R
$$

KSZ066>073-081>083-090>101-290600-
SOUTHEAST KANSAS

CITY           SKY/WX    TMP DP  RH WIND       PRES   REMARKS
CHANUTE        CLEAR     77  72  84 S6        29.97R
COFFEYVILLE    CLEAR     78  74  87 S5        29.96R
HUTCHINSON     CLEAR     82  73  74 NE10      29.99R
MEDICINE LODGE   N/A     84  69  60 S8        29.96R
NEWTON         CLEAR     84  66  54 SW8       30.01R
PARSONS        CLEAR     76  73  91 CALM      29.98R
WICHITA INTL   PTCLDY    84  68  58 S10       29.96R
WICHITA JABRA  CLEAR     85  67  54 S12       29.95R
WINFIELD       CLEAR     81  69  67 S9        29.97R
$$

KSZ007>012-019>026-033>040-048>060-102>105-290600-
NORTHEAST KANSAS

CITY           SKY/WX    TMP DP  RH WIND       PRES   REMARKS
CONCORDIA      CLOUDY    75  61  61 NE12      30.04R
EMPORIA        CLEAR     83  72  69 S12       29.95R
LAWRENCE       PTCLDY    82  72  71 CALM      29.94R
MANHATTAN      PTCLDY    79  70  74 NE15G23   29.97R
OLATHE IND     CLEAR     82  73  74 S9        29.96R
OLATHE EXE     CLEAR     80  73  79 S6        29.95R
SALINA         CLOUDY    80  65  59 N17       30.00R
TOPEKA BILLARD CLOUDY    86  75  69 W5        29.94R HX  95
TOPEKA FORBES  MOCLDY    85  73  67 W6        29.95R
$$



USA.gov is the U.S. government's official web portal to all federal, state and local government web resources and services.